sat.trackr.live / text

‹ back to catalog

ONEWEB-0112

NORAD 48051 · 2021-025K

PAYLOAD ACTIVE UNKNOWN

§ Identity

Operator
Country
UK
Launch date
2021-03-25
Launch site
VOSTO
Launch vehicle
Mass (kg)
RCS (m²)

Purposes: comms

External: N2YO · Heavens-Above · Gunter

§ Orbital elements

Epoch: 2026-09-09T16:00:14.049792Z

Period
109.63 min
Inclination
87.8940°
Eccentricity
0.0001794
Mean motion
13.13469561 rev/d
Perigee alt
1,208.4 km
Apogee alt
1,211.1 km
Semi-major
7,587.9 km
B*
8.7242e-4
RAAN
303.4094°
Arg perigee
89.4719°
Mean anomaly
270.6616°
Rev number
26,468

§ Raw data

ONEWEB-01121 48051U 21025K   26252.66682928  .00000331  00000+0  87242-3 0  99942 48051  87.8940 303.4094 0001794  89.4719 270.6616 13.13469561264681

JSON: /api/v1/satellites/48051 · /tle

For live sub-satellite position, see the globe view (requires WebGL).

§ Visibility from observer

Set your observer location to see the next 7 days of passes ≥ 10°. The values pass through the URL so the page stays shareable.

No JS? Fill the form by hand. The geolocation button needs JavaScript.